| time (UTC) | temp F | wind direction | speed MPH | gust MPH | rain 1hr in | rain 24hr in | rain mn in | humidity % | barometer mb |
| 20260505041532 | 55 | 165 | 0.0 | 2.0 | 0.00 | 0.17 | 0.00 | 94 | 1007.2 |
| 20260505040027 | 55 | 165 | 0.0 | 0.0 | 0.00 | 0.17 | 0.00 | 94 | 1007.3 |
| 20260505034525 | 55 | 176 | 0.0 | 3.0 | 0.00 | 0.17 | 0.00 | 94 | 1007.4 |
| 20260505033024 | 55 | 176 | 0.0 | 0.0 | 0.00 | 0.17 | 0.00 | 94 | 1007.4 |
| 20260505031523 | 55 | 176 | 0.0 | 0.0 | 0.00 | 0.17 | 0.00 | 94 | 1007.6 |
| 20260505030022 | 55 | 176 | 0.0 | 0.0 | 0.00 | 0.17 | 0.00 | 94 | 1007.7 |
| 20260505024521 | 55 | 176 | 0.0 | 0.0 | 0.00 | 0.17 | 0.00 | 94 | 1007.8 |
| 20260505023021 | 55 | 176 | 0.0 | 0.0 | 0.00 | 0.17 | 0.00 | 94 | 1007.9 |
| 20260505021519 | 55 | 176 | 0.0 | 0.0 | 0.00 | 0.17 | 0.00 | 94 | 1008.0 |
| 20260505020025 | 55 | 176 | 0.0 | 4.0 | 0.00 | 0.17 | 0.00 | 93 | 1008.1 |
| 20260505014530 | 55 | 275 | 0.0 | 0.0 | 0.00 | 0.17 | 0.00 | 93 | 1008.0 |
| 20260505013015 | 55 | 276 | 0.0 | 0.0 | 0.00 | 0.17 | 0.00 | 93 | 1008.1 |
| 20260505011515 | 55 | 276 | 0.0 | 0.0 | 0.00 | 0.17 | 0.00 | 93 | 1008.1 |
| 20260505010013 | 55 | 276 | 0.0 | 0.0 | 0.00 | 0.17 | 0.00 | 92 | 1008.2 |
| 20260505004513 | 55 | 276 | 0.0 | 0.0 | 0.00 | 0.17 | 0.00 | 92 | 1008.5 |
| 20260505003011 | 55 | 276 | 0.0 | 0.0 | 0.00 | 0.17 | 0.00 | 92 | 1008.6 |
| 20260505001510 | 55 | 276 | 0.0 | 0.0 | 0.00 | 0.17 | 0.00 | 92 | 1008.7 |
| 20260505000011 | 55 | 276 | 0.0 | 0.0 | 0.00 | 0.17 | 0.00 | 92 | 1008.8 |
| 20260504234506 | 55 | 276 | 0.0 | 0.0 | 0.00 | 0.17 | 0.00 | 92 | 1008.9 |
| 20260504233006 | 55 | 276 | 0.0 | 0.0 | 0.00 | 0.17 | 0.00 | 93 | 1009.1 |
| 20260504231503 | 55 | 276 | 0.0 | 0.0 | 0.00 | 0.17 | 0.00 | 93 | 1009.0 |
| 20260504230100 | 56 | 277 | 0.0 | 0.0 | 0.00 | 0.17 | 0.00 | 93 | 1009.2 |
| 20260504224559 | 56 | 277 | 0.0 | 0.0 | 0.00 | 0.17 | 0.00 | 93 | 1009.3 |
| 20260504223112 | 56 | 277 | 0.0 | 0.0 | 0.00 | 0.17 | 0.00 | 93 | 1009.5 |
| 20260504221558 | 56 | 277 | 0.0 | 0.0 | 0.00 | 0.17 | 0.00 | 93 | 1009.5 |
| 20260504220054 | 56 | 277 | 0.0 | 0.0 | 0.00 | 0.17 | 0.00 | 92 | 1009.7 |
| 20260504214553 | 56 | 277 | 0.0 | 0.0 | 0.00 | 0.17 | 0.17 | 92 | 1009.8 |
| 20260504213055 | 56 | 277 | 0.0 | 0.0 | 0.00 | 0.17 | 0.17 | 92 | 1009.9 |
| 20260504211634 | 56 | 277 | 0.0 | 0.0 | 0.00 | 0.17 | 0.17 | 92 | 1010.0 |
| 20260504210054 | 56 | 277 | 0.0 | 0.0 | 0.00 | 0.17 | 0.17 | 92 | 1010.1 |
| 20260504204553 | 56 | 277 | 0.0 | 0.0 | 0.00 | 0.17 | 0.17 | 92 | 1010.2 |
| 20260504203050 | 56 | 277 | 0.0 | 2.0 | 0.00 | 0.17 | 0.17 | 92 | 1010.2 |
| 20260504201555 | 56 | 277 | 0.0 | 2.0 | 0.00 | 0.17 | 0.17 | 92 | 1010.2 |
| 20260504200053 | 56 | 277 | 0.0 | 0.0 | 0.00 | 0.17 | 0.17 | 92 | 1010.3 |
| 20260504194554 | 56 | 277 | 0.0 | 2.0 | 0.00 | 0.17 | 0.17 | 92 | 1010.2 |
| 20260504193049 | 57 | 277 | 0.0 | 0.0 | 0.00 | 0.17 | 0.17 | 91 | 1010.2 |
| 20260504191606 | 57 | 277 | 0.0 | 1.0 | 0.00 | 0.17 | 0.17 | 91 | 1010.0 |
| 20260504190059 | 57 | 277 | 0.0 | 1.0 | 0.00 | 0.17 | 0.17 | 91 | 1010.0 |
| 20260504184551 | 57 | 277 | 0.0 | 0.0 | 0.00 | 0.17 | 0.17 | 91 | 1009.9 |
| 20260504183046 | 57 | 277 | 0.0 | 1.0 | 0.00 | 0.17 | 0.17 | 90 | 1010.0 |
| 20260504181548 | 58 | 277 | 0.0 | 1.0 | 0.00 | 0.17 | 0.17 | 90 | 1010.1 |
| 20260504180045 | 58 | 277 | 0.0 | 2.0 | 0.01 | 0.17 | 0.17 | 90 | 1010.1 |
| 20260504174545 | 58 | 277 | 0.0 | 1.0 | 0.01 | 0.17 | 0.17 | 90 | 1010.1 |
| 20260504173051 | 58 | 277 | 0.0 | 2.0 | 0.02 | 0.17 | 0.17 | 89 | 1010.3 |
| 20260504171543 | 59 | 277 | 0.0 | 1.0 | 0.02 | 0.17 | 0.17 | 89 | 1010.3 |
| 20260504081557 | 66 | 159 | 1.0 | 7.0 | 0.00 | 0.00 | 0.00 | 62 | 1010.8 |